Regional Weather Roundup
Issued by NWS

Home | Current Version | Previous Version | Text Only | Print | Product List | Glossary Off
Versions: 1 2 3 4 5 6 7 8 9 10 11 12 13 14 15 16 17 18 19 20 21 22 23 24 25 26 27 28 29 30 31 32 33 34 35 36 37 38 39 40 41 42 43 44 45 46 47 48 49 50

163
ASUS43 KIND 171759
RWRIN

WEATHER ROUNDUP FOR INDIANA
NATIONAL WEATHER SERVICE INDIANAPOLIS IN
100 PM EST SAT FEB 17 2018

NOTE: "FAIR" INDICATES FEW OR NO CLOUDS BELOW 12,000 FEET WITH NO
SIGNIFICANT WEATHER AND/OR OBSTRUCTIONS TO VISIBILITY.

* - STATION DOES NOT REPORT WEATHER SUCH AS PRECIPITATION OR FOG.

+ - STATION NOT QUALITY CONTROLLED BY THE NATIONAL WEATHER SERVICE.
    USE DATA WITH CAUTION...ESPECIALLY DEWPOINT AND RELATIVE
    HUMIDITY OBSERVATIONS.

INZ001>003-010>013-019-020-171900-
NORTHWEST INDIANA

CITY           SKY/WX    TMP DP  RH WIND       PRES   REMARKS
GARY /AIRPORT/ CLOUDY    36  25  64 S8        30.04F WCI  29
KNOX *+        FAIR      32  27  80 S12       30.05F WCI  23

$$

LMZ046-743>745-171900-
SOUTHERN LAKE MICHIGAN

STATION/POSITION TIME  TEMP    WIND        PRES    WAVE
                       AIR SEA DIR/SP/G            HT
                 (UTC) (F)     (DEG/KT/KT) (MB)    (FT)
BURNS HARBOR     1740   32     200/ 10/ 15 1017.9F
MICHIGAN CITY    1730   30     190/ 13/ 16   N/A

$$

INZ004-005-014>016-021>024-171900-
NORTH CENTRAL INDIANA

CITY           SKY/WX    TMP DP  RH WIND       PRES   REMARKS
ELKHART        SUNNY     32  25  74 SW8       30.04F WCI  25
GOSHEN         FAIR      33  25  72 S8        30.03F WCI  26
6HR MIN TEMP:  22; 6HR MAX TEMP:  33;

PERU/GRISSOM   PTSUNNY   33  33  97 S7        30.03F WCI  27
6HR MIN TEMP:  26; 6HR MAX TEMP:  33;

SOUTH BEND     FAIR      31  24  75 S10       30.04F WCI  22
6HR MIN TEMP:  15; 6HR MAX TEMP:  31;

WARSAW +       FAIR      32  27  80 S5        30.04F WCI  27

$$

INZ006>009-017-018-025>027-171900-
NORTHEAST INDIANA

CITY           SKY/WX    TMP DP  RH WIND       PRES   REMARKS
FORT WAYNE     PTSUNNY   33  27  78 S8        30.05F WCI  26
6HR MIN TEMP:  27; 6HR MAX TEMP:  34;

KENDALLVILLE + FAIR      32  26  79 SW9       30.03F WCI  24

$$

INZ028-029-035-036-043>045-051>053-171900-
WEST CENTRAL INDIANA

CITY           SKY/WX    TMP DP  RH WIND       PRES   REMARKS
GREENCASTLE +  LGT SNOW  32  30  93 CALM      30.04F
LAFAYETTE      PTSUNNY   34  28  79 S8        30.04F WCI  27
6HR MIN TEMP:  22; 6HR MAX TEMP:  34;

TERRE HAUTE    CLOUDY    34  33  96 S12       30.06F FOG     WCI  25
6HR MIN TEMP:  28; 6HR MAX TEMP:  34; 6HR PCP: TRACE;


$$

INZ030>032-037>040-046>048-054>057-064-065-171900-
CENTRAL INDIANA

CITY           SKY/WX    TMP DP  RH WIND       PRES   REMARKS
ANDERSON       CLOUDY    32  28  86 S9        30.06F WCI  24
COLUMBUS       LGT SNOW  32  30  93 SE8       30.08F FOG     WCI  25
GREENWOOD *+   CLOUDY   N/A N/A N/A S8        30.06F
INDIANAPOLIS   LGT SNOW  33  31  92 S9        30.04F FOG     WCI  25
6HR MIN TEMP:  28; 6HR MAX TEMP:  33; 6HR PCP: TRACE;

-EAGLE CREEK   LGT SNOW  33  28  81 S8        30.03F WCI  26
6HR MIN TEMP:  26; 6HR MAX TEMP:  34; 6HR PCP: TRACE;

KOKOMO +       PTSUNNY   33  27  78 S9        30.04F WCI  25
6HR MIN TEMP:  26; 6HR MAX TEMP:  33;

MT COMFORT *+  CLOUDY    32  32 100 S10       30.04F WCI  24
SHELBYVILLE    LGT SNOW  33  30  88 S14       30.05F FOG     WCI  23
6HR MIN TEMP:  30; 6HR MAX TEMP:  34; 6HR PCP: TRACE;


$$

INZ033-034-041-042-049-050-058-059-171900-
EAST CENTRAL INDIANA

CITY           SKY/WX    TMP DP  RH WIND       PRES   REMARKS
MUNCIE         CLOUDY    35  27  72 SW8       30.05F WCI  29
6HR MIN TEMP:  27; 6HR MAX TEMP:  35;

RICHMOND +     LGT SNOW  30  30 100 S8        30.08F WCI  23

$$

INZ060-061-067>069-081>083-085>088-171900-
SOUTHWEST INDIANA

CITY           SKY/WX    TMP DP  RH WIND       PRES   REMARKS
EVANSVILLE     SNOW      33  33 100 CALM      30.08F VSB 1/2
6HR MIN TEMP:  32; 6HR MAX TEMP:  36; 6HR PCP:  0.32;

HUNTINGBURG +  LGT SNOW  33  32  96 E7        30.06F FOG     WCI  27
6HR MIN TEMP:  32; 6HR MAX TEMP:  34; 6HR PCP:  0.23;


$$

INZ062-063-066-070>080-084-089>092-171900-
SOUTH CENTRAL AND SOUTHEAST INDIANA

CITY           SKY/WX    TMP DP  RH WIND       PRES   REMARKS
BLOOMINGTON    LGT SNOW  32  30  92 S9        30.03F FOG     WCI  24
6HR MIN TEMP:  29; 6HR MAX TEMP:  32; 6HR PCP:  0.04;

FRENCH LICK *+ CLOUDY    32 N/A N/A E5        30.05F VSB 1   WCI  27
SEYMOUR +      LGT SNOW  34  32  93 SE3       30.08F VSB 3/4

$$





USA.gov is the U.S. government's official web portal to all federal, state and local government web resources and services.